Regional Weather Roundup
Issued by NWS

Home | Current Version | Previous Version | Text Only | Print | Product List | Glossary On
Versions: 1 2 3 4 5 6 7 8 9 10 11 12 13 14 15 16 17 18 19 20 21 22 23 24 25 26 27 28 29 30 31 32 33 34 35 36 37 38 39 40 41 42 43 44 45 46 47 48 49 50
000
ASUS44 KBMX 010810
RWRAL

ALABAMA REGIONAL WEATHER ROUNDUP
NATIONAL WEATHER SERVICE BIRMINGHAM AL
300 AM CDT TUE SEP 01 2015

NOTE: "FAIR" INDICATES FEW OR NO CLOUDS BELOW 12,000 FEET
WITH NO SIGNIFICANT WEATHER AND/OR OBSTRUCTIONS TO VISIBILITY.

THE REMARK "TC" DENOTES TEMPERATURE IN DEGREES CELSIUS.

ALZ001>011-014-016>018-020-010900-
NORTH ALABAMA

CITY           SKY/WX    TMP DP  RH WIND       PRES   REMARKS
MUSCLE SHOALS  CLEAR     67  64  90 CALM      30.11R
HUNTSVILLE     CLEAR     69  65  86 CALM      30.10S FOG
DECATUR        CLEAR     65  65 100 CALM      30.11R
HALEYVILLE     FAIR      65  65 100 CALM      30.13S FOG
GADSDEN        PTCLDY    66  61  82 CALM      30.10R
$$

ALZ012-013-022-023-030>036-040>044-010900-
WEST CENTRAL ALABAMA

CITY           SKY/WX    TMP DP  RH WIND       PRES   REMARKS
TUSCALOOSA     CLEAR     70  68  93 CALM      30.08R
$$

ALZ015-024>027-033>036-040>044-010900-
CENTRAL ALABAMA

CITY           SKY/WX    TMP DP  RH WIND       PRES   REMARKS
BIRMINGHAM     CLEAR     70  69  97 CALM      30.11S
MONTGOMERY     CLEAR     72  68  87 CALM      30.06S
SHELBY CO ARPT CLEAR     71  69  93 CALM      30.09S
MAXWELL AFB    CLEAR     73  71  94 N2        30.05S
GREENVILLE     FAIR      71  68  90 CALM      30.05F
$$

ALZ019-021-028-029-037-038-045>048-010900-
EAST CENTRAL ALABAMA

CITY           SKY/WX    TMP DP  RH WIND       PRES   REMARKS
ANNISTON       CLOUDY    71  68  90 NE3       30.10F
ALEXANDER CITY CLEAR     74  72  93 CALM      30.09S
AUBURN         NOT AVBL
$$

ALZ051>064-010900-
SOUTHWEST ALABAMA

CITY           SKY/WX    TMP DP  RH WIND       PRES   REMARKS
MOBILE         CLEAR     71  70  96 NW3       30.05S
BROOKLEY FIELD CLEAR     75  72  90 NW3       30.06S
EVERGREEN      CLEAR     70  69  97 CALM      30.05S FOG
$$

ALZ049-050-065>069-010900-
SOUTHEAST ALABAMA

CITY           SKY/WX    TMP DP  RH WIND       PRES   REMARKS
DOTHAN         CLEAR     71  70  96 CALM      30.09R
OZARK            N/A     71  69  95 E1        30.05S
TROY           CLEAR     70  68  93 CALM      30.06F
EUFAULA        FAIR      70  69  97 CALM      30.05S
$$



USA.gov is the U.S. government's official web portal to all federal, state and local government web resources and services.